Location: Newark
(44.1667°N, 8.2500°E)
Time: 15:09:55
(UTC+00:00)

S-56A Canister/Altair - Pass Details

Date: 11 December 2019
Orbit: 634 x 2498 km, 38.9° (Epoch: 22 January)

Event Time Altitude Azimuth Distance (km) Brightness Sun altitude
Rises 07:17:40 0° 198° (SSW) 5,299 12.1 3.0°
Reaches altitude 10° 07:21:35 10° 187° (S) 4,551 11.9 3.6°
Maximum altitude 07:31:57 28° 135° (SE) 3,711 12.5 5.0°
Drops below altitude 10° 07:43:33 10° 85° (E) 5,161 12.5 6.6°
Sets 07:48:18 0° 75° (ENE) 6,116 12.6 7.2°
